| time (UTC) | temp F | wind direction | speed MPH | gust MPH | rain 1hr in | rain 24hr in | rain mn in | humidity % | barometer mb |
| 20260906211255 | 92 | 176 | 9.0 | 17.0 | 0.00 | 0.00 | 0.00 | 38 | 1016.2 |
| 20260906210750 | 92 | 121 | 12.0 | 13.0 | 0.00 | 0.00 | 0.00 | 38 | 1016.2 |
| 20260906210245 | 91 | 144 | 19.0 | 23.0 | 0.00 | 0.00 | 0.00 | 38 | 1016.3 |
| 20260906205745 | 92 | 153 | 17.0 | 20.0 | 0.00 | 0.00 | 0.00 | 38 | 1016.4 |
| 20260906205241 | 92 | 139 | 11.0 | 19.0 | 0.00 | 0.00 | 0.00 | 39 | 1016.4 |
| 20260906204736 | 92 | 157 | 13.0 | 17.0 | 0.00 | 0.00 | 0.00 | 39 | 1016.6 |
| 20260906204230 | 91 | 150 | 11.0 | 11.0 | 0.00 | 0.00 | 0.00 | 40 | 1016.6 |
| 20260906203729 | 92 | 132 | 16.0 | 17.0 | 0.00 | 0.00 | 0.00 | 40 | 1016.6 |
| 20260906203225 | 91 | 151 | 13.0 | 13.0 | 0.00 | 0.00 | 0.00 | 41 | 1016.6 |
| 20260906202722 | 91 | 170 | 8.0 | 12.0 | 0.00 | 0.00 | 0.00 | 39 | 1016.8 |
| 20260906202221 | 91 | 164 | 10.0 | 16.0 | 0.00 | 0.00 | 0.00 | 40 | 1016.6 |
| 20260906201716 | 91 | 146 | 16.0 | 19.0 | 0.00 | 0.00 | 0.00 | 41 | 1016.5 |
| 20260906201216 | 90 | 115 | 10.0 | 17.0 | 0.00 | 0.00 | 0.00 | 40 | 1017.0 |
| 20260906200711 | 91 | 142 | 15.0 | 18.0 | 0.00 | 0.00 | 0.00 | 40 | 1016.6 |
| 20260906200207 | 91 | 166 | 12.0 | 20.0 | 0.00 | 0.00 | 0.00 | 42 | 1016.9 |
| 20260906195703 | 90 | 134 | 15.0 | 15.0 | 0.00 | 0.00 | 0.00 | 42 | 1016.9 |
| 20260906195159 | 91 | 191 | 9.0 | 14.0 | 0.00 | 0.00 | 0.00 | 41 | 1016.9 |
| 20260906194654 | 90 | 152 | 18.0 | 18.0 | 0.00 | 0.00 | 0.00 | 41 | 1017.2 |
| 20260906194149 | 91 | 158 | 8.0 | 15.0 | 0.00 | 0.00 | 0.00 | 42 | 1017.2 |
| 20260906193644 | 90 | 144 | 9.0 | 11.0 | 0.00 | 0.00 | 0.00 | 41 | 1017.4 |
| 20260906193139 | 90 | 165 | 9.0 | 15.0 | 0.00 | 0.00 | 0.00 | 42 | 1017.2 |
| 20260906192636 | 89 | 151 | 12.0 | 15.0 | 0.00 | 0.00 | 0.00 | 44 | 1017.2 |
| 20260906192134 | 89 | 141 | 13.0 | 22.0 | 0.00 | 0.00 | 0.00 | 44 | 1017.4 |
| 20260906191630 | 90 | 133 | 11.0 | 17.0 | 0.00 | 0.00 | 0.00 | 43 | 1017.3 |
| 20260906191128 | 91 | 133 | 16.0 | 18.0 | 0.00 | 0.00 | 0.00 | 45 | 1017.2 |
| 20260906190623 | 91 | 175 | 7.0 | 11.0 | 0.00 | 0.00 | 0.00 | 42 | 1017.9 |
| 20260906190118 | 90 | 172 | 10.0 | 11.0 | 0.00 | 0.00 | 0.00 | 43 | 1017.9 |
| 20260906185616 | 90 | 164 | 11.0 | 15.0 | 0.00 | 0.00 | 0.00 | 42 | 1017.8 |
| 20260906185116 | 90 | 135 | 21.0 | 23.0 | 0.00 | 0.00 | 0.00 | 45 | 1017.8 |
| 20260906184610 | 89 | 155 | 8.0 | 11.0 | 0.00 | 0.00 | 0.00 | 44 | 1017.7 |
| 20260906184106 | 88 | 206 | 6.0 | 14.0 | 0.00 | 0.00 | 0.00 | 43 | 1018.1 |
| 20260906183602 | 88 | 114 | 11.0 | 14.0 | 0.00 | 0.00 | 0.00 | 45 | 1018.2 |
| 20260906183058 | 89 | 146 | 14.0 | 20.0 | 0.00 | 0.00 | 0.00 | 46 | 1018.0 |
| 20260906182552 | 89 | 195 | 5.0 | 9.0 | 0.00 | 0.00 | 0.00 | 48 | 1018.3 |
| 20260906182049 | 89 | 169 | 8.0 | 9.0 | 0.00 | 0.00 | 0.00 | 46 | 1018.3 |
| 20260906181544 | 89 | 144 | 8.0 | 15.0 | 0.00 | 0.00 | 0.00 | 46 | 1018.5 |
| 20260906181039 | 88 | 189 | 6.0 | 12.0 | 0.00 | 0.00 | 0.00 | 47 | 1018.3 |
| 20260906180534 | 88 | 197 | 5.0 | 9.0 | 0.00 | 0.00 | 0.00 | 46 | 1018.4 |
| 20260906180033 | 89 | 164 | 9.0 | 14.0 | 0.00 | 0.00 | 0.00 | 46 | 1018.5 |
| 20260906175527 | 89 | 152 | 10.0 | 13.0 | 0.00 | 0.00 | 0.00 | 46 | 1018.7 |
| 20260906175027 | 88 | 230 | 5.0 | 13.0 | 0.00 | 0.00 | 0.00 | 46 | 1018.9 |
| 20260906174525 | 89 | 169 | 8.0 | 16.0 | 0.00 | 0.00 | 0.00 | 49 | 1018.7 |
| 20260906174020 | 89 | 185 | 5.0 | 9.0 | 0.00 | 0.00 | 0.00 | 49 | 1018.8 |
| 20260906173515 | 87 | 150 | 8.0 | 13.0 | 0.00 | 0.00 | 0.00 | 49 | 1018.8 |
| 20260906173010 | 88 | 141 | 10.0 | 14.0 | 0.00 | 0.00 | 0.00 | 47 | 1019.0 |
| 20260906172505 | 88 | 163 | 9.0 | 14.0 | 0.00 | 0.00 | 0.00 | 49 | 1019.0 |
| 20260906172001 | 88 | 153 | 9.0 | 18.0 | 0.00 | 0.00 | 0.00 | 48 | 1018.9 |
| 20260906171455 | 88 | 170 | 6.0 | 12.0 | 0.00 | 0.00 | 0.00 | 49 | 1019.0 |
| 20260906170950 | 87 | 146 | 12.0 | 19.0 | 0.00 | 0.00 | 0.00 | 49 | 1019.1 |
| 20260906170447 | 87 | 170 | 10.0 | 12.0 | 0.00 | 0.00 | 0.00 | 50 | 1019.1 |
| 20260906165944 | 87 | 200 | 7.0 | 11.0 | 0.00 | 0.00 | 0.00 | 49 | 1019.0 |
| 20260906165443 | 87 | 172 | 10.0 | 14.0 | 0.00 | 0.00 | 0.00 | 51 | 1019.1 |
| 20260906164937 | 87 | 175 | 10.0 | 10.0 | 0.00 | 0.00 | 0.00 | 51 | 1019.2 |
| 20260906164436 | 87 | 153 | 11.0 | 18.0 | 0.00 | 0.00 | 0.00 | 52 | 1019.1 |
| 20260906163927 | 87 | 152 | 13.0 | 14.0 | 0.00 | 0.00 | 0.00 | 53 | 1019.2 |
| 20260906163423 | 87 | 187 | 6.0 | 10.0 | 0.00 | 0.00 | 0.00 | 54 | 1019.2 |
| 20260906162920 | 86 | 177 | 8.0 | 11.0 | 0.00 | 0.00 | 0.00 | 52 | 1019.2 |
| 20260906162414 | 86 | 201 | 7.0 | 9.0 | 0.00 | 0.00 | 0.00 | 56 | 1019.0 |
| 20260906161909 | 86 | 170 | 9.0 | 10.0 | 0.00 | 0.00 | 0.00 | 57 | 1019.2 |
| 20260906161408 | 86 | 205 | 8.0 | 14.0 | 0.00 | 0.00 | 0.00 | 57 | 1019.0 |
| 20260906160907 | 85 | 211 | 12.0 | 15.0 | 0.00 | 0.00 | 0.00 | 57 | 1019.4 |
| 20260906160401 | 85 | 199 | 12.0 | 14.0 | 0.00 | 0.00 | 0.00 | 56 | 1019.3 |
| 20260906155859 | 85 | 213 | 12.0 | 14.0 | 0.00 | 0.00 | 0.00 | 58 | 1019.1 |
| 20260906155353 | 84 | 206 | 7.0 | 14.0 | 0.00 | 0.00 | 0.00 | 59 | 1019.2 |
| 20260906154850 | 84 | 186 | 8.0 | 15.0 | 0.00 | 0.00 | 0.00 | 59 | 1019.0 |
| 20260906154349 | 84 | 200 | 12.0 | 13.0 | 0.00 | 0.00 | 0.00 | 59 | 1019.1 |
| 20260906153848 | 83 | 209 | 12.0 | 14.0 | 0.00 | 0.00 | 0.00 | 61 | 1019.2 |
| 20260906153342 | 83 | 214 | 9.0 | 11.0 | 0.00 | 0.00 | 0.00 | 61 | 1019.2 |
| 20260906152837 | 83 | 202 | 11.0 | 12.0 | 0.00 | 0.00 | 0.00 | 61 | 1019.3 |
| 20260906152337 | 82 | 212 | 10.0 | 14.0 | 0.00 | 0.00 | 0.00 | 62 | 1019.0 |
| 20260906151836 | 82 | 217 | 10.0 | 12.0 | 0.00 | 0.00 | 0.00 | 64 | 1019.1 |
| 20260906151332 | 82 | 203 | 13.0 | 15.0 | 0.00 | 0.00 | 0.00 | 63 | 1019.0 |
| 20260906150827 | 82 | 201 | 8.0 | 10.0 | 0.00 | 0.00 | 0.00 | 64 | 1019.0 |
| 20260906150323 | 81 | 203 | 11.0 | 14.0 | 0.00 | 0.00 | 0.00 | 64 | 1019.0 |
| 20260906145822 | 81 | 189 | 7.0 | 11.0 | 0.00 | 0.00 | 0.00 | 66 | 1019.0 |
| 20260906145320 | 80 | 201 | 12.0 | 12.0 | 0.00 | 0.00 | 0.00 | 66 | 1019.3 |
| 20260906144816 | 80 | 193 | 7.0 | 12.0 | 0.00 | 0.00 | 0.00 | 65 | 1019.1 |
| 20260906144311 | 80 | 196 | 9.0 | 14.0 | 0.00 | 0.00 | 0.00 | 65 | 1019.0 |
| 20260906143810 | 80 | 202 | 12.0 | 13.0 | 0.00 | 0.00 | 0.00 | 66 | 1018.9 |
| 20260906143307 | 79 | 193 | 6.0 | 10.0 | 0.00 | 0.00 | 0.00 | 67 | 1019.1 |
| 20260906142803 | 79 | 218 | 9.0 | 10.0 | 0.00 | 0.00 | 0.00 | 67 | 1019.2 |
| 20260906142258 | 78 | 204 | 9.0 | 12.0 | 0.00 | 0.00 | 0.00 | 65 | 1018.9 |
| 20260906141756 | 78 | 198 | 10.0 | 10.0 | 0.00 | 0.00 | 0.00 | 66 | 1019.1 |
| 20260906141251 | 77 | 189 | 5.0 | 12.0 | 0.00 | 0.00 | 0.00 | 67 | 1018.9 |
| 20260906140750 | 77 | 201 | 7.0 | 9.0 | 0.00 | 0.00 | 0.00 | 67 | 1018.9 |
| 20260906140240 | 77 | 195 | 7.0 | 8.0 | 0.00 | 0.00 | 0.00 | 69 | 1018.8 |
| 20260906135737 | 76 | 172 | 7.0 | 11.0 | 0.00 | 0.00 | 0.00 | 70 | 1018.8 |
| 20260906135233 | 76 | 176 | 7.0 | 10.0 | 0.00 | 0.00 | 0.00 | 69 | 1018.9 |
| 20260906134728 | 75 | 167 | 6.0 | 9.0 | 0.00 | 0.00 | 0.00 | 70 | 1018.5 |
| 20260906134223 | 75 | 183 | 6.0 | 11.0 | 0.00 | 0.00 | 0.00 | 69 | 1018.5 |
| 20260906133719 | 75 | 205 | 7.0 | 11.0 | 0.00 | 0.00 | 0.00 | 71 | 1018.4 |
| 20260906133214 | 75 | 198 | 7.0 | 9.0 | 0.00 | 0.00 | 0.00 | 71 | 1018.3 |
| 20260906132709 | 74 | 198 | 6.0 | 9.0 | 0.00 | 0.00 | 0.00 | 71 | 1018.5 |
| 20260906132205 | 74 | 182 | 5.0 | 9.0 | 0.00 | 0.00 | 0.00 | 71 | 1018.2 |
| 20260906131700 | 73 | 164 | 6.0 | 10.0 | 0.00 | 0.00 | 0.00 | 71 | 1018.5 |
| 20260906131154 | 73 | 188 | 5.0 | 9.0 | 0.00 | 0.00 | 0.00 | 72 | 1018.5 |
| 20260906130649 | 73 | 167 | 6.0 | 9.0 | 0.00 | 0.00 | 0.00 | 72 | 1018.3 |
| 20260906130145 | 73 | 168 | 6.0 | 9.0 | 0.00 | 0.00 | 0.00 | 72 | 1018.2 |
| 20260906125637 | 73 | 173 | 6.0 | 9.0 | 0.00 | 0.00 | 0.00 | 72 | 1018.2 |
| 20260906125136 | 73 | 166 | 7.0 | 8.0 | 0.00 | 0.00 | 0.00 | 72 | 1018.1 |
| 20260906124632 | 73 | 167 | 7.0 | 10.0 | 0.00 | 0.00 | 0.00 | 72 | 1018.2 |
| 20260906124127 | 73 | 186 | 6.0 | 7.0 | 0.00 | 0.00 | 0.00 | 73 | 1018.2 |
| 20260906123626 | 73 | 182 | 6.0 | 8.0 | 0.00 | 0.00 | 0.00 | 73 | 1018.2 |
| 20260906123121 | 73 | 199 | 5.0 | 8.0 | 0.00 | 0.00 | 0.00 | 73 | 1018.1 |
| 20260906122620 | 73 | 165 | 6.0 | 8.0 | 0.00 | 0.00 | 0.00 | 72 | 1017.9 |
| 20260906122116 | 73 | 186 | 4.0 | 8.0 | 0.00 | 0.00 | 0.00 | 73 | 1017.9 |
| 20260906121612 | 73 | 169 | 5.0 | 9.0 | 0.00 | 0.00 | 0.00 | 73 | 1017.9 |
| 20260906121103 | 73 | 192 | 5.0 | 6.0 | 0.00 | 0.00 | 0.00 | 73 | 1017.9 |
| 20260906120557 | 73 | 167 | 6.0 | 9.0 | 0.00 | 0.00 | 0.00 | 72 | 1017.9 |
| 20260906120055 | 73 | 177 | 4.0 | 8.0 | 0.00 | 0.00 | 0.00 | 72 | 1017.5 |
| 20260906115549 | 73 | 163 | 6.0 | 6.0 | 0.00 | 0.00 | 0.00 | 72 | 1017.4 |
| 20260906115044 | 73 | 167 | 6.0 | 8.0 | 0.00 | 0.00 | 0.00 | 72 | 1017.5 |
| 20260906114538 | 73 | 180 | 5.0 | 7.0 | 0.00 | 0.00 | 0.00 | 73 | 1017.7 |
| 20260906114034 | 72 | 164 | 5.0 | 7.0 | 0.00 | 0.00 | 0.00 | 73 | 1017.7 |
| 20260906113532 | 72 | 145 | 7.0 | 8.0 | 0.00 | 0.00 | 0.00 | 73 | 1017.7 |
| 20260906113028 | 72 | 150 | 3.0 | 5.0 | 0.00 | 0.00 | 0.00 | 74 | 1017.8 |
| 20260906112522 | 72 | 142 | 4.0 | 7.0 | 0.00 | 0.00 | 0.00 | 74 | 1017.7 |
| 20260906112019 | 72 | 137 | 4.0 | 8.0 | 0.00 | 0.00 | 0.00 | 74 | 1017.7 |
| 20260906111513 | 72 | 156 | 5.0 | 8.0 | 0.00 | 0.00 | 0.00 | 74 | 1017.8 |
| 20260906111008 | 72 | 154 | 5.0 | 6.0 | 0.00 | 0.00 | 0.00 | 74 | 1017.2 |
| 20260906110503 | 72 | 159 | 6.0 | 8.0 | 0.00 | 0.00 | 0.00 | 74 | 1017.4 |
| 20260906110002 | 72 | 164 | 6.0 | 6.0 | 0.00 | 0.00 | 0.00 | 75 | 1017.5 |
| 20260906105458 | 72 | 155 | 5.0 | 6.0 | 0.00 | 0.00 | 0.00 | 75 | 1017.3 |
| 20260906104954 | 72 | 156 | 6.0 | 6.0 | 0.00 | 0.00 | 0.00 | 76 | 1017.4 |
| 20260906104452 | 72 | 144 | 5.0 | 6.0 | 0.00 | 0.00 | 0.00 | 77 | 1017.2 |
| 20260906103951 | 72 | 160 | 4.0 | 5.0 | 0.00 | 0.00 | 0.00 | 77 | 1017.2 |
| 20260906103450 | 72 | 154 | 4.0 | 5.0 | 0.00 | 0.00 | 0.00 | 77 | 1017.7 |
| 20260906102945 | 72 | 147 | 4.0 | 5.0 | 0.00 | 0.00 | 0.00 | 78 | 1017.3 |
| 20260906102444 | 72 | 130 | 5.0 | 6.0 | 0.00 | 0.00 | 0.00 | 77 | 1017.1 |
| 20260906101939 | 73 | 133 | 6.0 | 6.0 | 0.00 | 0.00 | 0.00 | 75 | 1017.2 |
| 20260906101435 | 73 | 150 | 3.0 | 5.0 | 0.00 | 0.00 | 0.00 | 74 | 1017.2 |
| 20260906100930 | 72 | 158 | 5.0 | 5.0 | 0.00 | 0.00 | 0.00 | 75 | 1017.2 |
| 20260906100430 | 73 | 152 | 3.0 | 4.0 | 0.00 | 0.00 | 0.00 | 75 | 1017.2 |
| 20260906095924 | 73 | 195 | 2.0 | 4.0 | 0.00 | 0.00 | 0.00 | 75 | 1017.3 |
| 20260906095420 | 72 | 188 | 2.0 | 3.0 | 0.00 | 0.00 | 0.00 | 76 | 1017.3 |
| 20260906094914 | 72 | 172 | 2.0 | 3.0 | 0.00 | 0.00 | 0.00 | 76 | 1017.2 |
| 20260906094409 | 73 | 149 | 2.0 | 4.0 | 0.00 | 0.00 | 0.00 | 76 | 1017.4 |
| 20260906093905 | 73 | 149 | 3.0 | 5.0 | 0.00 | 0.00 | 0.00 | 74 | 1017.4 |
| 20260906093401 | 73 | 159 | 3.0 | 4.0 | 0.00 | 0.00 | 0.00 | 75 | 1017.4 |
| 20260906092855 | 72 | 202 | 3.0 | 4.0 | 0.00 | 0.00 | 0.00 | 77 | 1017.5 |
| 20260906092349 | 72 | 209 | 4.0 | 4.0 | 0.00 | 0.00 | 0.00 | 78 | 1017.4 |
| 20260906091845 | 71 | 174 | 2.0 | 3.0 | 0.00 | 0.00 | 0.00 | 80 | 1017.5 |
| 20260906091341 | 71 | 178 | 0.0 | 2.0 | 0.00 | 0.00 | 0.00 | 81 | 1017.4 |
| 20260906090837 | 71 | 199 | 2.0 | 2.0 | 0.00 | 0.00 | 0.00 | 82 | 1017.5 |
| 20260906090336 | 71 | 239 | 2.0 | 3.0 | 0.00 | 0.00 | 0.00 | 82 | 1017.4 |
| 20260906085831 | 72 | 218 | 2.0 | 2.0 | 0.00 | 0.00 | 0.00 | 82 | 1017.2 |
| 20260906085329 | 71 | 158 | 1.0 | 3.0 | 0.00 | 0.00 | 0.00 | 81 | 1017.4 |
| 20260906084824 | 71 | 235 | 2.0 | 2.0 | 0.00 | 0.00 | 0.00 | 81 | 1017.4 |
| 20260906084324 | 71 | 271 | 2.0 | 3.0 | 0.00 | 0.00 | 0.00 | 82 | 1017.3 |
| 20260906083813 | 71 | 293 | 2.0 | 3.0 | 0.00 | 0.00 | 0.00 | 81 | 1017.3 |
| 20260906083308 | 72 | 316 | 4.0 | 5.0 | 0.00 | 0.00 | 0.00 | 80 | 1017.4 |
| 20260906082804 | 73 | 306 | 6.0 | 6.0 | 0.00 | 0.00 | 0.00 | 78 | 1017.4 |
| 20260906082258 | 73 | 300 | 3.0 | 4.0 | 0.00 | 0.00 | 0.00 | 75 | 1017.4 |
| 20260906081754 | 75 | 289 | 3.0 | 4.0 | 0.00 | 0.00 | 0.00 | 71 | 1017.4 |
| 20260906081250 | 75 | 229 | 3.0 | 5.0 | 0.00 | 0.00 | 0.00 | 68 | 1017.3 |
| 20260906080745 | 75 | 203 | 3.0 | 5.0 | 0.00 | 0.00 | 0.00 | 66 | 1017.3 |
| 20260906080242 | 75 | 189 | 3.0 | 5.0 | 0.00 | 0.00 | 0.00 | 66 | 1017.2 |
| 20260906075735 | 75 | 186 | 3.0 | 6.0 | 0.00 | 0.00 | 0.00 | 65 | 1017.8 |
| 20260906075230 | 75 | 167 | 6.0 | 7.0 | 0.00 | 0.00 | 0.00 | 66 | 1017.4 |
| 20260906074725 | 75 | 179 | 4.0 | 8.0 | 0.00 | 0.00 | 0.00 | 66 | 1017.5 |
| 20260906074224 | 75 | 173 | 5.0 | 6.0 | 0.00 | 0.00 | 0.00 | 66 | 1017.2 |
| 20260906073719 | 75 | 180 | 5.0 | 8.0 | 0.00 | 0.00 | 0.00 | 65 | 1017.5 |
| 20260906073214 | 75 | 190 | 4.0 | 6.0 | 0.00 | 0.00 | 0.00 | 66 | 1017.7 |
| 20260906072710 | 75 | 171 | 5.0 | 7.0 | 0.00 | 0.00 | 0.00 | 65 | 1017.5 |
| 20260906072205 | 75 | 181 | 5.0 | 6.0 | 0.00 | 0.00 | 0.00 | 66 | 1017.3 |
| 20260906071701 | 76 | 181 | 5.0 | 7.0 | 0.00 | 0.00 | 0.00 | 65 | 1017.7 |
| 20260906071201 | 76 | 181 | 7.0 | 7.0 | 0.00 | 0.00 | 0.00 | 65 | 1017.4 |
| 20260906070657 | 76 | 191 | 5.0 | 6.0 | 0.00 | 0.00 | 0.00 | 66 | 1017.5 |
| 20260906070153 | 76 | 191 | 6.0 | 6.0 | 0.00 | 0.00 | 0.00 | 66 | 1017.8 |
| 20260906065652 | 76 | 198 | 4.0 | 7.0 | 0.00 | 0.00 | 0.00 | 66 | 1017.7 |
| 20260906065148 | 76 | 185 | 5.0 | 9.0 | 0.00 | 0.00 | 0.00 | 66 | 1017.4 |
| 20260906064643 | 75 | 181 | 6.0 | 6.0 | 0.00 | 0.00 | 0.00 | 67 | 1017.3 |
| 20260906064139 | 75 | 180 | 5.0 | 6.0 | 0.00 | 0.00 | 0.00 | 68 | 1017.8 |
| 20260906063633 | 75 | 180 | 3.0 | 6.0 | 0.00 | 0.00 | 0.00 | 69 | 1017.5 |
| 20260906063129 | 75 | 180 | 4.0 | 4.0 | 0.00 | 0.00 | 0.00 | 70 | 1017.7 |
| 20260906062625 | 75 | 185 | 4.0 | 4.0 | 0.00 | 0.00 | 0.00 | 70 | 1017.8 |
| 20260906062123 | 75 | 188 | 4.0 | 4.0 | 0.00 | 0.00 | 0.00 | 71 | 1017.7 |
| 20260906061620 | 74 | 194 | 3.0 | 5.0 | 0.00 | 0.00 | 0.00 | 72 | 1017.7 |
| 20260906061119 | 74 | 167 | 3.0 | 4.0 | 0.00 | 0.00 | 0.00 | 73 | 1017.7 |
| 20260906060616 | 74 | 172 | 3.0 | 4.0 | 0.00 | 0.00 | 0.00 | 74 | 1017.8 |
| 20260906060109 | 74 | 175 | 2.0 | 4.0 | 0.00 | 0.00 | 0.00 | 75 | 1017.9 |
| 20260906055603 | 74 | 236 | 3.0 | 3.0 | 0.00 | 0.00 | 0.00 | 77 | 1017.8 |
| 20260906055058 | 74 | 254 | 2.0 | 3.0 | 0.00 | 0.00 | 0.00 | 79 | 1017.8 |
| 20260906054552 | 73 | 257 | 2.0 | 4.0 | 0.00 | 0.00 | 0.00 | 80 | 1017.7 |
| 20260906054047 | 73 | 230 | 2.0 | 3.0 | 0.00 | 0.00 | 0.00 | 82 | 1017.7 |
| 20260906053544 | 73 | 212 | 2.0 | 3.0 | 0.00 | 0.00 | 0.00 | 83 | 1017.8 |
| 20260906053039 | 73 | 242 | 1.0 | 2.0 | 0.00 | 0.00 | 0.00 | 85 | 1017.8 |
| 20260906052534 | 74 | 231 | 2.0 | 4.0 | 0.00 | 0.00 | 0.00 | 85 | 1017.7 |
| 20260906052032 | 74 | 218 | 3.0 | 4.0 | 0.00 | 0.00 | 0.00 | 86 | 1017.9 |
| 20260906051527 | 73 | 145 | 2.0 | 4.0 | 0.00 | 0.00 | 0.00 | 87 | 1017.8 |
| 20260906051023 | 73 | 162 | 4.0 | 5.0 | 0.00 | 0.00 | 0.00 | 89 | 1017.7 |
| 20260906050518 | 73 | 169 | 4.0 | 5.0 | 0.00 | 0.00 | 0.00 | 91 | 1017.8 |
| 20260906050013 | 73 | 159 | 4.0 | 5.0 | 0.00 | 0.00 | 0.00 | 92 | 1017.8 |
| 20260906045511 | 73 | 163 | 4.0 | 4.0 | 0.00 | 0.98 | 0.98 | 93 | 1017.9 |
| 20260906045007 | 73 | 133 | 4.0 | 4.0 | 0.00 | 0.98 | 0.98 | 95 | 1017.7 |
| 20260906044502 | 73 | 150 | 5.0 | 6.0 | 0.00 | 0.98 | 0.98 | 96 | 1017.8 |
| 20260906043957 | 73 | 163 | 4.0 | 6.0 | 0.00 | 0.98 | 0.98 | 98 | 1017.7 |
| 20260906043453 | 72 | 169 | 6.0 | 6.0 | 0.00 | 0.98 | 0.98 | 99 | 1017.7 |
| 20260906042949 | 71 | 191 | 3.0 | 5.0 | 0.00 | 0.98 | 0.98 | 99 | 1017.5 |
| 20260906042448 | 71 | 201 | 5.0 | 6.0 | 0.00 | 0.98 | 0.98 | 99 | 1017.7 |
| 20260906041948 | 71 | 206 | 4.0 | 5.0 | 0.00 | 0.98 | 0.98 | 99 | 1017.7 |
| 20260906041444 | 71 | 172 | 4.0 | 5.0 | 0.00 | 0.98 | 0.98 | 99 | 1017.5 |
| 20260906040943 | 70 | 169 | 3.0 | 4.0 | 0.00 | 0.98 | 0.98 | 99 | 1017.8 |
| 20260906040438 | 71 | 182 | 2.0 | 3.0 | 0.00 | 0.98 | 0.98 | 99 | 1018.0 |
| 20260906035933 | 70 | 212 | 5.0 | 6.0 | 0.00 | 0.98 | 0.98 | 99 | 1017.8 |
| 20260906035429 | 69 | 168 | 6.0 | 8.0 | 0.00 | 0.98 | 0.98 | 99 | 1017.8 |
| 20260906034925 | 69 | 199 | 9.0 | 9.0 | 0.00 | 0.98 | 0.98 | 99 | 1017.9 |
| 20260906034419 | 70 | 221 | 7.0 | 8.0 | 0.00 | 0.98 | 0.98 | 99 | 1017.8 |
| 20260906033914 | 70 | 222 | 3.0 | 4.0 | 0.00 | 0.98 | 0.98 | 99 | 1018.0 |
| 20260906033409 | 70 | 157 | 1.0 | 4.0 | 0.00 | 0.98 | 0.98 | 99 | 1017.9 |
| 20260906032904 | 69 | 143 | 5.0 | 7.0 | 0.00 | 0.98 | 0.98 | 99 | 1017.3 |
| 20260906032400 | 69 | 150 | 5.0 | 7.0 | 0.00 | 0.98 | 0.98 | 99 | 1017.3 |
| 20260906031855 | 69 | 152 | 6.0 | 8.0 | 0.00 | 0.98 | 0.98 | 99 | 1017.1 |
| 20260906031350 | 69 | 141 | 8.0 | 10.0 | 0.00 | 0.98 | 0.98 | 99 | 1016.9 |
| 20260906030846 | 69 | 143 | 7.0 | 7.0 | 0.00 | 0.98 | 0.98 | 99 | 1016.6 |
| 20260906030341 | 68 | 142 | 6.0 | 7.0 | 0.00 | 0.98 | 0.98 | 99 | 1016.8 |
| 20260906025835 | 68 | 163 | 4.0 | 6.0 | 0.00 | 0.98 | 0.98 | 99 | 1016.8 |
| 20260906025329 | 68 | 155 | 5.0 | 6.0 | 0.00 | 0.98 | 0.98 | 99 | 1016.4 |
| 20260906024828 | 68 | 170 | 3.0 | 4.0 | 0.00 | 0.98 | 0.98 | 98 | 1016.6 |
| 20260906024328 | 68 | 161 | 4.0 | 5.0 | 0.02 | 0.98 | 0.98 | 98 | 1016.6 |
| 20260906023823 | 67 | 223 | 7.0 | 7.0 | 0.02 | 0.98 | 0.98 | 98 | 1016.9 |
| 20260906023319 | 67 | 159 | 6.0 | 7.0 | 0.05 | 0.97 | 0.97 | 98 | 1017.0 |
| 20260906022814 | 67 | 154 | 2.0 | 7.0 | 0.14 | 0.97 | 0.97 | 98 | 1017.1 |
| 20260906022309 | 67 | 194 | 8.0 | 13.0 | 0.17 | 0.96 | 0.96 | 98 | 1017.4 |
| 20260906021804 | 66 | 231 | 12.0 | 14.0 | 0.14 | 0.94 | 0.94 | 98 | 1017.8 |
| 20260906021258 | 66 | 282 | 6.0 | 8.0 | 0.40 | 0.93 | 0.93 | 98 | 1018.1 |
| 20260906020752 | 66 | 253 | 13.0 | 25.0 | 0.40 | 0.91 | 0.91 | 98 | 1017.9 |
| 20260906020247 | 65 | 226 | 14.0 | 17.0 | 0.85 | 0.86 | 0.86 | 97 | 1018.3 |
| 20260906015741 | 66 | 256 | 10.0 | 25.0 | 1.63 | 0.81 | 0.81 | 97 | 1018.4 |
| 20260906015239 | 64 | 205 | 14.0 | 30.0 | 2.72 | 0.70 | 0.70 | 96 | 1018.5 |
| 20260906014734 | 65 | 169 | 6.0 | 18.0 | 1.96 | 0.47 | 0.47 | 95 | 1019.2 |
| 20260906014230 | 65 | 318 | 18.0 | 24.0 | 1.35 | 0.23 | 0.23 | 94 | 1018.2 |
| 20260906013726 | 70 | 325 | 30.0 | 34.0 | 0.78 | 0.13 | 0.13 | 85 | 1017.9 |
| 20260906013226 | 80 | 322 | 55.0 | 55.0 | 0.00 | 0.00 | 0.00 | 58 | 1016.5 |
| 20260906012721 | 83 | 313 | 29.0 | 34.0 | 0.00 | 0.00 | 0.00 | 50 | 1016.0 |
| 20260906012216 | 86 | 349 | 19.0 | 28.0 | 0.00 | 0.00 | 0.00 | 46 | 1015.4 |
| 20260906011711 | 87 | 342 | 22.0 | 23.0 | 0.00 | 0.00 | 0.00 | 42 | 1015.4 |
| 20260906011206 | 88 | 329 | 7.0 | 15.0 | 0.00 | 0.00 | 0.00 | 41 | 1015.6 |
| 20260906010701 | 89 | 339 | 4.0 | 5.0 | 0.00 | 0.00 | 0.00 | 39 | 1015.3 |
| 20260906010158 | 90 | 24 | 4.0 | 8.0 | 0.00 | 0.00 | 0.00 | 38 | 1015.1 |
| 20260906005657 | 91 | 10 | 5.0 | 7.0 | 0.00 | 0.00 | 0.00 | 36 | 1015.3 |
| 20260906005157 | 91 | 88 | 5.0 | 9.0 | 0.00 | 0.00 | 0.00 | 36 | 1015.2 |
| 20260906004656 | 91 | 112 | 6.0 | 9.0 | 0.00 | 0.00 | 0.00 | 35 | 1015.0 |
| 20260906004151 | 91 | 128 | 6.0 | 11.0 | 0.00 | 0.00 | 0.00 | 35 | 1014.9 |
| 20260906003646 | 92 | 136 | 8.0 | 11.0 | 0.00 | 0.00 | 0.00 | 36 | 1015.0 |
| 20260906003142 | 92 | 140 | 8.0 | 11.0 | 0.00 | 0.00 | 0.00 | 36 | 1014.9 |
| 20260906002636 | 92 | 131 | 9.0 | 15.0 | 0.00 | 0.00 | 0.00 | 36 | 1015.0 |
| 20260906002131 | 92 | 139 | 12.0 | 12.0 | 0.00 | 0.00 | 0.00 | 35 | 1015.0 |
| 20260906001627 | 92 | 134 | 11.0 | 13.0 | 0.00 | 0.00 | 0.00 | 35 | 1014.6 |
| 20260906001126 | 92 | 136 | 13.0 | 16.0 | 0.00 | 0.00 | 0.00 | 35 | 1014.7 |
| 20260906000622 | 92 | 135 | 14.0 | 16.0 | 0.00 | 0.00 | 0.00 | 36 | 1014.5 |
| 20260906000118 | 92 | 140 | 12.0 | 15.0 | 0.00 | 0.00 | 0.00 | 36 | 1014.7 |
| 20260905235616 | 93 | 144 | 11.0 | 13.0 | 0.00 | 0.00 | 0.00 | 35 | 1014.6 |
| 20260905235112 | 93 | 136 | 13.0 | 17.0 | 0.00 | 0.00 | 0.00 | 35 | 1014.6 |
| 20260905234612 | 93 | 135 | 14.0 | 17.0 | 0.00 | 0.00 | 0.00 | 35 | 1014.5 |
| 20260905234107 | 93 | 136 | 12.0 | 19.0 | 0.00 | 0.00 | 0.00 | 34 | 1014.3 |
| 20260905233602 | 93 | 135 | 11.0 | 16.0 | 0.00 | 0.00 | 0.00 | 34 | 1014.2 |
| 20260905233102 | 93 | 140 | 9.0 | 14.0 | 0.00 | 0.00 | 0.00 | 32 | 1014.2 |
| 20260905232557 | 93 | 144 | 14.0 | 16.0 | 0.00 | 0.00 | 0.00 | 32 | 1014.3 |
| 20260905232053 | 94 | 161 | 10.0 | 16.0 | 0.00 | 0.00 | 0.00 | 32 | 1014.4 |
| 20260905231548 | 94 | 147 | 15.0 | 19.0 | 0.00 | 0.00 | 0.00 | 32 | 1014.1 |
| 20260905231044 | 96 | 140 | 19.0 | 23.0 | 0.00 | 0.00 | 0.00 | 32 | 1014.2 |
| 20260905230543 | 95 | 141 | 15.0 | 18.0 | 0.00 | 0.00 | 0.00 | 33 | 1014.0 |
| 20260905230042 | 95 | 142 | 19.0 | 21.0 | 0.00 | 0.00 | 0.00 | 34 | 1014.3 |
| 20260905225537 | 95 | 137 | 19.0 | 24.0 | 0.00 | 0.00 | 0.00 | 33 | 1014.1 |
| 20260905225033 | 95 | 137 | 13.0 | 21.0 | 0.00 | 0.00 | 0.00 | 33 | 1014.2 |
| 20260905224532 | 94 | 148 | 17.0 | 27.0 | 0.00 | 0.00 | 0.00 | 35 | 1014.2 |
| 20260905224032 | 95 | 151 | 15.0 | 20.0 | 0.00 | 0.00 | 0.00 | 33 | 1014.2 |
| 20260905223530 | 95 | 131 | 15.0 | 21.0 | 0.00 | 0.00 | 0.00 | 32 | 1014.2 |
| 20260905223025 | 95 | 150 | 18.0 | 24.0 | 0.00 | 0.00 | 0.00 | 32 | 1014.2 |
| 20260905222525 | 96 | 141 | 21.0 | 23.0 | 0.00 | 0.00 | 0.00 | 31 | 1014.2 |
| 20260905222020 | 97 | 134 | 19.0 | 22.0 | 0.00 | 0.00 | 0.00 | 31 | 1014.4 |
| 20260905221517 | 96 | 156 | 17.0 | 27.0 | 0.00 | 0.00 | 0.00 | 31 | 1014.3 |
| 20260905221012 | 96 | 136 | 13.0 | 18.0 | 0.00 | 0.00 | 0.00 | 31 | 1014.2 |
| 20260905220509 | 96 | 166 | 10.0 | 13.0 | 0.00 | 0.00 | 0.00 | 31 | 1014.4 |
| 20260905220004 | 96 | 169 | 9.0 | 13.0 | 0.00 | 0.00 | 0.00 | 30 | 1014.4 |
| 20260905215458 | 97 | 162 | 11.0 | 19.0 | 0.00 | 0.00 | 0.00 | 30 | 1014.5 |
| 20260905214954 | 98 | 174 | 10.0 | 18.0 | 0.00 | 0.00 | 0.00 | 30 | 1014.5 |
| 20260905214449 | 97 | 124 | 9.0 | 15.0 | 0.00 | 0.00 | 0.00 | 31 | 1014.5 |
| 20260905213943 | 98 | 157 | 14.0 | 21.0 | 0.00 | 0.00 | 0.00 | 30 | 1014.6 |
| 20260905213439 | 99 | 142 | 15.0 | 20.0 | 0.00 | 0.00 | 0.00 | 29 | 1014.6 |
| 20260905212934 | 99 | 146 | 11.0 | 19.0 | 0.00 | 0.00 | 0.00 | 29 | 1014.4 |
| 20260905212429 | 99 | 155 | 13.0 | 21.0 | 0.00 | 0.00 | 0.00 | 29 | 1014.5 |
| 20260905211928 | 99 | 200 | 11.0 | 16.0 | 0.00 | 0.00 | 0.00 | 28 | 1014.7 |
| 20260905211424 | 99 | 186 | 4.0 | 13.0 | 0.00 | 0.00 | 0.00 | 28 | 1014.7 |